Погода в Туле

Погода в Туле : погода сейчас, прогноз погоды и архив. Всё, что Вы хотите узнать о погоде в Туле!

Хотите узнать прогноз погоды в Туле? Тогда Вам сюда: Погода в Туле

Поиск расширенной информации на нашем сайте:

Другие новости

Новости СМИ2

Главная страница сайта

Новости сайта

03.07.2017

Напоминаем, что на нашем специализированном сайте Метеоцентр.Азия вы можете получить высокодетализированные автоматические прогнозы погоды по пунктам России, СНГ и мира в авиационном формате (включающие направление и скорость ветра, видимость, явления погоды, количество и форму облачности, нижнюю и верхнюю границу облачности).


Погода в Туле - сегодня

Время (UTC), дата Ветер
(°,м/с) 
Видим.   Явления Облачность Т
(°С)
Тd
(°С)
f(%) Тe
(°С)
Pmin
(гПа)
dP
(гПа)
Po
(мм)
O2
(г/м3)
Тmin Tmax R s Состояние
почвы
15 17.09.17 050 (СВ) 10 км    9/3 600 м кучево-дожд., средняя 
[Cb calv|Ac trans]
+16.7 +10.9 69 +20  1019.1  -1.8  746  281           
21 17.09.17 130 (ЮВ) 10 км    ясно 
+14.3 +9.2 71 +16  1016.7  -1.6  744  283           
00 18.09.17 130 (ЮВ) 10 км    ясно 
+13.8 +8.9 72 +14  1015.6  -1.1  743  284           
03 18.09.17 120 (ЮВ) 10 км    10/0 верхняя 
[Cs]
+11.5 +8.5 82 +13  1013.8  -2  742  285  +11.4         
09 18.09.17 130 (ЮВ) 10 км    8/0 верхняя 
[Ci fib]
+24 +12.3 48 +29  1008  -2.6  738  271           
18 18.09.17 190 (Ю) 10 км  {ливн. осадки}  8/4 600 м кучево-дожд., средняя, верхняя 
[Cb calv|Ac trans|Ci fib]
+18.7 +11.4 62 +22  1007  0.6  738  276    +27.7  0.4     
21 18.09.17 200 (Ю) 10 км    ясно 
+15.3 +9.1 66 +16  1008.2  0.8  738  280           
00 19.09.17 180 (Ю) 10 км    ясно 
+13.4 +6.1 61 +13  1008.4  0.1  738  283           
03 19.09.17 190 (Ю) 4{10}  10 км    ясно 
+11 +5.4 68 +10  1009  0.3  739  285  +11    0.0     
06 19.09.17 210 (ЮЗ) 6-11{13}  10 км    9/0 средняя 
[Ac trans]
+12.3 +5.9 65 +11  1011  2.2  740  284  +10.7        сухая 
09 19.09.17 230 (ЮЗ) 6-12{15}  10 км    9/0 средняя 
[Ac trans]
+13.9 +5.7 58 +13  1013.7  2.7  742  284           
12 19.09.17 240 (ЮЗ) 6-11{12}  10 км    8/4 1000 м верхняя 
[Cu hum|Ci]
+16.1 +5 48 +16  1015.6  744  282           
15 19.09.17 280 (З) 2{11}  10 км    4/4 1000 м 
[Cu hum]
+13.6 +4.8 55 +14  1018.2  2.3  745  285           
18 19.09.17 240 (ЮЗ) 10 км    ясно 
+8.4 +5.5 82 +9  1020.1  1.5  747  291    +16.4       
21 19.09.17 240 (ЮЗ) 10 км    ясно 
+6.9 +5 88 +8  1021.2  0.9  747  293           
00 20.09.17 220 (ЮЗ) 10 км    ясно 
+5.7 +4.8 94 +7  1023  1.4  748  295           
03 20.09.17 050 (СВ) 10 км    ясно 
+5.4 +4.5 94 +3  1023.4  0.6  749  295  +4.2         
06 20.09.17 тихо ()   10 км    8/0 средняя 
[Ac trans]
+9.3 +6.8 84 +9  1024.6  1.3  750  291  +4.2        сухая 
09 20.09.17 180 (Ю) 10 км    3/0 средняя 
[Ac trans]
+16.2 +6.8 54 +17  1024.1  0.1  750  284           
12 20.09.17 140 (ЮВ) 10 км    6/3 1000 м средняя, верхняя 
[Cu hum|Ac trans|Ci fib]
+17.9 +6.5 47 +19  1023.5  -0.4  749  282           
15 20.09.17 090 (В) 10 км    6/0 средняя, верхняя 
[Ac trans|Ci sp]
+14.8 +7.2 60 +16  1023.7  -0.1  749  285           
18 20.09.17 020 (С) 10 км    6/0 средняя 
[Ac trans]
+11.3 +7.6 78 +12  1023.1  -0.6  749  288    +18.5       
21 20.09.17 030 (СВ) 10 км    3/0 средняя 
[Ac trans]
+9.9 +6.7 80 +10  1024.2  0.7  749  290           
00 21.09.17 020 (С) 10 км    9/4 600 м кучево-дожд., средняя 
[Cb calv|Ac trans]
+10.4 +7 79 +12  1025.3  750  290           
03 21.09.17 030 (СВ) 10 км    9/5 600 м кучево-дожд., средняя 
[Cb calv|Ac trans]
+10 +7.1 82 +10  1025.5  0.2  750  290  +9.6         
Время (UTC), дата Ветер
(°,м/с) 
Видим.   Явления Облачность Т
(°С)
Тd
(°С)
f(%) Тe
(°С)
Pmin
(гПа)
dP
(гПа)
Po
(мм)
O2
(г/м3)
Тmin Tmax R s Состояние
почвы

Для получения пояснительной информации подведите курсор к названию столбца.

ПОГОДА в Туле - архив

Всё, что Вы хотите узнать о погоде в Туле - удобно и подробно!

Выберите нужную дату (начиная с 1 января 2015* года) и нажмите кнопку "Найти".
Будут отображены архивные сводки погоды по пункту Тула, начиная с указанной даты.


Отображать данные в формате CSV (для использования в таблицах Excel)


Внимание! Наш архив погоды предназначен исключительно для личного некоммерческого использования в познавательных целях. Если Вам необходимы официальные справки о состоянии погоды (для производственных, юридических, коммерческих и т.п. целей), обращайтесь в органы Росгидромета.

*Примечание: данная дата относится к архиву по метеостанциям СССР (Россия, СНГ, Балтия).
Архив по метеостанциям Зарубежной Европы и Азии (кроме Китая) хранится 10 дней, по другим регионам земного шара (Китай, Африка, Америка, Австралия, Океания) - 1 день.

Тула - район местоположения метеостанции


Название, широта, долгота, высота метеостанции:
Тула 54.2°ш. 37.6°д. 203 м над ур. моря [Российская Федерация]

Дополнительная информация

В oтличие oт бoльшинства пoгoдных сайтoв мы публикуем пoдрoбную метеoинфoрмацию в детальнoм прoфессиoнальнoм фoрмате.

Характеристики температуры и влажнoсти вoздуха измеряются на высoте 2 м в тени вдали oт зданий и деревьев.
Скoрoсть ветра измеряется на высoте 10 м (на урoвне рoста челoвека скoрoсть ветра ниже в 1.5-2 раза). Если метеoстанция нахoдится в гoрoде или в лесу, тo скoрoсть ветра занижена на 2-4 м/с пo сравнению с oткрытым местoм. Скoрoсть ветра над акватoриями крупных рек и oзёр, а также на вершинах хoлмoв на 2-5 м/с выше, чем в oбычных услoвиях.
Атмoсфернoе давление в разных тoчках местнoсти мoжет значительнo oтличаться oт давления на метеoстанции, в зависимoсти oт услoвий рельефа (при пoдъёме на 10 м давление пoнижается примернo на 1 мм рт.ст.).